timestamp,wind_dir_avg,wind_spd_avg,wind_spd_max_dir,wind_spd_gust,battery_voltage,lat,long
2024-01-24 00:04:00+00:00,301.0,11.6,287.0,17.27,12.25,47.59359,-54.27349
2024-01-24 00:14:00+00:00,309.0,11.93,310.0,14.28,12.17,47.59359,-54.27349
2024-01-24 00:24:00+00:00,304.0,11.14,297.0,16.88,12.17,47.59359,-54.27349
2024-01-24 00:34:00+00:00,304.0,11.99,295.0,16.18,12.17,47.59359,-54.27349
2024-01-24 00:44:00+00:00,310.0,11.29,314.0,14.38,12.17,47.59359,-54.27349
2024-01-24 00:54:00+00:00,308.0,11.3,311.0,13.32,12.17,47.59359,-54.27349
2024-01-24 01:04:00+00:00,308.0,9.3,303.0,11.34,12.17,47.59359,-54.27349
2024-01-24 01:14:00+00:00,309.0,7.9,296.0,10.97,12.17,47.59359,-54.27349
2024-01-24 01:24:00+00:00,301.0,10.31,304.0,12.18,12.17,47.59359,-54.27349
2024-01-24 01:34:00+00:00,313.0,11.15,312.0,13.62,12.17,47.59359,-54.27349
2024-01-24 01:44:00+00:00,306.0,10.4,307.0,12.42,12.17,47.59359,-54.27349
2024-01-24 01:54:00+00:00,318.0,11.52,322.0,14.4,12.17,47.59359,-54.27349
2024-01-24 02:04:00+00:00,312.0,10.5,319.0,13.62,12.17,47.59359,-54.27349
2024-01-24 02:14:00+00:00,308.0,10.41,311.0,12.22,12.17,47.59359,-54.27349
2024-01-24 02:24:00+00:00,316.0,8.43,314.0,13.08,12.17,47.59359,-54.27349
2024-01-24 02:34:00+00:00,326.0,12.05,338.0,15.67,12.17,47.59359,-54.27349
2024-01-24 02:44:00+00:00,336.0,12.54,325.0,15.55,12.17,47.59359,-54.27349
2024-01-24 02:54:00+00:00,331.0,11.99,328.0,13.89,12.17,47.59359,-54.27349
2024-01-24 03:04:00+00:00,310.0,11.91,303.0,15.85,12.17,47.59359,-54.27349
2024-01-24 03:14:00+00:00,312.0,12.66,305.0,16.01,12.09,47.59359,-54.27349
2024-01-24 03:24:00+00:00,320.0,11.26,308.0,14.72,12.09,47.59359,-54.27349
2024-01-24 03:34:00+00:00,307.0,13.69,308.0,16.49,12.09,47.59359,-54.27349
2024-01-24 03:44:00+00:00,320.0,13.25,315.0,18.27,12.09,47.59359,-54.27349
2024-01-24 03:54:00+00:00,330.0,9.51,333.0,11.01,12.09,47.59359,-54.27349
2024-01-24 04:04:00+00:00,319.0,13.7,309.0,17.39,12.09,47.59359,-54.27349
2024-01-24 04:14:00+00:00,303.0,14.98,304.0,17.12,12.09,47.59359,-54.27349
2024-01-24 04:24:00+00:00,330.0,7.69,323.0,11.64,12.09,47.59359,-54.27349
2024-01-24 04:34:00+00:00,313.0,11.98,309.0,16.35,12.09,47.59359,-54.27349
2024-01-24 04:44:00+00:00,326.0,8.98,300.0,14.11,12.09,47.59359,-54.27349
2024-01-24 04:54:00+00:00,322.0,9.68,302.0,14.33,12.09,47.59359,-54.27349
2024-01-24 05:04:00+00:00,319.0,7.88,312.0,10.74,12.09,47.59359,-54.27349
2024-01-24 05:14:00+00:00,333.0,9.65,340.0,13.25,12.01,47.59359,-54.27349
2024-01-24 05:24:00+00:00,329.0,7.32,312.0,9.08,12.01,47.59359,-54.27349
2024-01-24 05:34:00+00:00,321.0,4.84,315.0,6.17,12.01,47.59359,-54.27349
2024-01-24 05:44:00+00:00,322.0,5.93,309.0,8.33,12.01,47.59359,-54.27349
2024-01-24 05:54:00+00:00,336.0,7.32,326.0,9.75,12.01,47.59359,-54.27349
2024-01-24 06:04:00+00:00,315.0,7.84,304.0,15.66,12.01,47.59359,-54.27349
2024-01-24 06:14:00+00:00,321.0,5.74,298.0,14.0,12.01,47.59359,-54.27349
2024-01-24 06:24:00+00:00,305.0,4.98,302.0,7.1,12.01,47.59359,-54.27349
2024-01-24 06:34:00+00:00,300.0,5.02,302.0,7.62,12.01,47.59359,-54.27349
2024-01-24 06:44:00+00:00,306.0,5.06,302.0,7.08,12.01,47.59359,-54.27349
2024-01-24 06:54:00+00:00,311.0,7.63,290.0,14.3,12.01,47.59359,-54.27349
2024-01-24 07:04:00+00:00,302.0,11.53,300.0,15.6,12.01,47.59359,-54.27349
2024-01-24 11:14:00+00:00,311.0,8.74,300.0,14.35,11.86,47.59359,-54.27349
2024-01-24 11:24:00+00:00,310.0,8.64,303.0,14.68,11.86,47.59359,-54.27349
2024-01-24 11:34:00+00:00,307.0,8.53,298.0,13.92,11.86,47.59359,-54.27349
2024-01-24 11:44:00+00:00,292.0,13.03,297.0,14.99,11.86,47.59359,-54.27349
2024-01-24 11:54:00+00:00,296.0,13.44,295.0,15.11,11.86,47.59359,-54.27349
2024-01-24 12:04:00+00:00,298.0,13.58,306.0,16.21,11.86,47.59359,-54.27349
2024-01-24 12:14:00+00:00,298.0,13.62,301.0,16.45,14.32,47.59359,-54.27349
2024-01-24 12:24:00+00:00,303.0,14.73,304.0,16.69,14.32,47.59359,-54.27349
2024-01-24 12:34:00+00:00,302.0,14.15,302.0,16.18,14.32,47.59359,-54.27349
2024-01-24 12:44:00+00:00,302.0,14.24,309.0,16.49,14.32,47.59359,-54.27349
2024-01-24 12:54:00+00:00,301.0,14.61,310.0,17.39,14.32,47.59359,-54.27349
2024-01-24 13:04:00+00:00,305.0,14.09,312.0,17.19,14.32,47.59359,-54.27349
2024-01-24 13:14:00+00:00,307.0,14.16,309.0,16.56,14.24,47.59359,-54.27349
2024-01-24 13:24:00+00:00,313.0,12.15,303.0,16.63,14.24,47.59359,-54.27349
2024-01-24 13:34:00+00:00,321.0,11.71,314.0,18.15,14.24,47.59359,-54.27349
2024-01-24 13:44:00+00:00,315.0,14.03,316.0,18.28,14.24,47.59359,-54.27349
2024-01-24 13:54:00+00:00,316.0,13.66,315.0,18.18,14.24,47.59359,-54.27349
2024-01-24 14:04:00+00:00,307.0,13.56,305.0,16.39,14.24,47.59359,-54.27349
2024-01-24 14:14:00+00:00,319.0,11.55,303.0,15.21,14.48,47.59359,-54.27349
2024-01-24 14:24:00+00:00,303.0,12.59,300.0,15.2,14.48,47.59359,-54.27349
2024-01-24 14:34:00+00:00,311.0,13.14,313.0,17.97,14.48,47.59359,-54.27349
2024-01-24 14:44:00+00:00,307.0,13.31,302.0,16.7,14.48,47.59359,-54.27349
2024-01-24 14:54:00+00:00,319.0,10.82,309.0,15.74,14.48,47.59359,-54.27349
2024-01-24 15:04:00+00:00,327.0,9.48,324.0,13.6,14.48,47.59359,-54.27349
2024-01-24 15:14:00+00:00,325.0,8.51,304.0,13.82,14.0,47.59359,-54.27349
2024-01-24 15:24:00+00:00,322.0,6.92,316.0,11.82,14.0,47.59359,-54.27349
2024-01-24 15:34:00+00:00,294.0,12.52,292.0,14.94,14.0,47.59359,-54.27349
2024-01-24 15:44:00+00:00,296.0,10.05,292.0,13.75,14.0,47.59359,-54.27349
2024-01-24 15:54:00+00:00,298.0,9.25,295.0,14.5,14.0,47.59359,-54.27349
2024-01-24 16:04:00+00:00,291.0,9.99,287.0,13.25,14.0,47.59359,-54.27349
2024-01-24 16:14:00+00:00,294.0,10.55,285.0,13.32,14.64,47.59359,-54.27349
2024-01-24 16:24:00+00:00,303.0,8.46,318.0,11.09,14.64,47.59359,-54.27349
2024-01-24 16:34:00+00:00,308.0,13.95,305.0,16.43,14.64,47.59359,-54.27349
2024-01-24 16:44:00+00:00,300.0,12.29,302.0,14.63,14.64,47.59359,-54.27349
2024-01-24 16:54:00+00:00,308.0,10.49,308.0,13.67,14.64,47.59359,-54.27349
2024-01-24 17:04:00+00:00,306.0,9.1,309.0,11.18,14.64,47.59359,-54.27349
2024-01-24 17:14:00+00:00,309.0,9.49,304.0,12.42,13.68,47.59359,-54.27349
2024-01-24 17:24:00+00:00,305.0,7.7,309.0,10.41,13.68,47.59359,-54.27349
2024-01-24 17:34:00+00:00,310.0,9.49,314.0,11.83,13.68,47.59359,-54.27349
2024-01-24 17:44:00+00:00,290.0,9.9,298.0,11.4,13.68,47.59359,-54.27349
2024-01-24 17:54:00+00:00,293.0,10.2,283.0,12.91,13.68,47.59359,-54.27349
2024-01-24 18:04:00+00:00,286.0,9.79,279.0,11.6,13.68,47.59359,-54.27349
2024-01-24 18:14:00+00:00,294.0,10.78,291.0,12.56,13.76,47.59359,-54.27349
2024-01-24 18:24:00+00:00,287.0,8.93,284.0,11.04,13.76,47.59359,-54.27349
2024-01-24 18:34:00+00:00,290.0,8.96,296.0,12.46,13.76,47.59359,-54.27349
2024-01-24 18:44:00+00:00,301.0,9.34,304.0,11.5,13.76,47.59359,-54.27349
2024-01-24 18:54:00+00:00,293.0,8.18,290.0,9.93,13.76,47.59359,-54.27349
2024-01-24 19:04:00+00:00,292.0,10.33,291.0,12.23,13.76,47.59359,-54.27349
2024-01-24 19:14:00+00:00,292.0,8.51,286.0,11.74,14.4,47.59359,-54.27349
2024-01-24 19:24:00+00:00,290.0,8.09,282.0,10.23,14.4,47.59359,-54.27349
2024-01-24 19:34:00+00:00,307.0,9.69,300.0,12.58,14.4,47.59359,-54.27349
2024-01-24 19:44:00+00:00,301.0,9.23,298.0,10.92,14.4,47.59359,-54.27349
2024-01-24 19:54:00+00:00,289.0,8.36,289.0,10.71,14.4,47.59359,-54.27349
2024-01-24 20:04:00+00:00,291.0,9.09,288.0,10.65,14.4,47.59359,-54.27349
2024-01-24 20:14:00+00:00,278.0,7.53,281.0,10.32,13.05,47.59359,-54.27349
2024-01-24 20:24:00+00:00,277.0,8.14,281.0,9.93,13.05,47.59359,-54.27349
2024-01-24 20:34:00+00:00,281.0,8.49,279.0,10.09,13.05,47.59359,-54.27349
2024-01-24 20:44:00+00:00,275.0,8.32,287.0,10.6,13.05,47.59359,-54.27349
2024-01-24 20:54:00+00:00,276.0,7.59,278.0,9.79,13.05,47.59359,-54.27349
2024-01-24 21:04:00+00:00,277.0,8.63,278.0,10.15,13.05,47.59359,-54.27349
2024-01-24 21:14:00+00:00,281.0,8.79,286.0,10.36,12.41,47.59359,-54.27349
2024-01-24 21:24:00+00:00,280.0,7.47,286.0,8.6,12.41,47.59359,-54.27349
2024-01-24 21:34:00+00:00,270.0,7.71,279.0,9.92,12.41,47.59359,-54.27349
2024-01-24 21:44:00+00:00,276.0,8.18,286.0,10.29,12.41,47.59359,-54.27349
2024-01-24 21:54:00+00:00,271.0,8.05,269.0,9.79,12.41,47.59359,-54.27349
2024-01-24 22:04:00+00:00,272.0,8.41,271.0,9.97,12.41,47.59359,-54.27349
2024-01-24 22:14:00+00:00,278.0,6.86,282.0,8.45,12.25,47.59359,-54.27349
2024-01-24 22:24:00+00:00,286.0,7.51,293.0,9.98,12.25,47.59359,-54.27349
2024-01-24 22:34:00+00:00,293.0,7.64,299.0,9.72,12.25,47.59359,-54.27349
2024-01-24 22:44:00+00:00,287.0,7.08,277.0,12.01,12.25,47.59359,-54.27349
2024-01-24 22:54:00+00:00,291.0,7.97,287.0,11.54,12.25,47.59359,-54.27349
2024-01-24 23:04:00+00:00,295.0,7.2,294.0,9.02,12.25,47.59359,-54.27349
2024-01-24 23:14:00+00:00,276.0,7.57,269.0,11.8,12.17,47.59359,-54.27349
2024-01-24 23:24:00+00:00,292.0,7.63,302.0,10.69,12.17,47.59359,-54.27349
2024-01-24 23:34:00+00:00,289.0,7.18,285.0,9.02,12.17,47.59359,-54.27349
2024-01-24 23:44:00+00:00,268.0,7.0,266.0,8.37,12.17,47.59359,-54.27349
2024-01-24 23:54:00+00:00,267.0,7.43,280.0,9.85,12.17,47.59359,-54.27349
